Location: Althorst
(53.6379°N, 10.7715°E)
Time: 04:37:52
(UTC+00:00)

Cosmos 2279 Rocket - Pass Details

Date: 10 December 2019
Orbit: 965 x 978 km, 82.9° (Epoch: 21 January)

Event Time Altitude Azimuth Distance (km) Brightness Sun altitude
Rises 15:23:15 0° 350° (N) 3,688 6.8 -4.0°
Reaches altitude 10° 15:25:50 10° 354° (N) 2,738 6.1 -4.3°
Maximum altitude 15:32:02 59° 74° (ENE) 1,121 4.1 -5.1°
Drops below altitude 10° 15:38:12 10° 154° (SSE) 2,726 6.4 -5.8°
Sets 15:40:45 0° 158° (SSE) 3,670 7.1 -6.1°
